Location: ??????
(56.0120°N, 39.1740°E)
Time: 12:04:11
(UTC+00:00)

CZ-2C R/B - Pass Details

Date: 14 April 2026
Orbit: 781 x 868 km, 98.4° (Epoch: 10 May)

Event Time Altitude Azimuth Distance (km) Brightness Sun altitude
Exits shadow 22:44:51 27° 259° (WSW) 1,579 3.8 -22.2°
Maximum altitude 22:45:24 28° 269° (W) 1,562 3.9 -22.1°
Drops below altitude 10° 22:50:05 10° 327° (NNW) 2,478 5.5 -21.9°
Sets 22:52:48 0° 339° (NNW) 3,404 6.5 -21.7°
